Weather History for KROC - January, 2013

Change the Weather History Date:

Monday, January 21, 2013

  Actual Average Record
Temperature  
Mean Temperature 18 °F 24 °F  
Max Temperature 21 °F 31 °F 71 °F (1906)
Min Temperature 14 °F 17 °F -10 °F (2005)
Degree Days  
Heating Degree Days 47 41  
Month to date heating degree days 672 844  
Since 1 July heating degree days 2848 3297  
Cooling Degree Days 0 0  
Month to date cooling degree days 0 0  
Year to date cooling degree days 0 0  
Moisture  
Dew Point 8 °F    
Average Humidity 65    
Maximum Humidity 74    
Minimum Humidity 56    
Precipitation  
Precipitation T in 0.07 in 1.01 in (1959)
Month to date precipitation 0.38 1.68  
Year to date precipitation 0.38 1.68  
Snow  
Snow 0.10 in 0.90 in 8.80 in (1881)
Month to date snowfall 6.8 19.2  
Since 1 July snowfall 30.2 48.4  
Snow Depth T in    
Sea Level Pressure  
Sea Level Pressure 29.96 in    
Wind  
Wind Speed 9 mph (WSW)    
Max Wind Speed 20 mph    
Max Gust Speed 25 mph    
Visibility 9 miles    
Events Snow    
T = Trace of Precipitation, MM = Missing Value Source: NWS Daily Summary

Daily Weather History Graph

Daily Weather History Graph

Search for Another Location

Airport or City:

Trip Planner

Search our weather history database for the weather conditions in past years. The results will help you decide how hot, cold, wet, or windy it might be!

Date:

Astronomy

Jan. 21, 2013 Rise Set
Actual Time 7:35 AM EST 5:08 PM EST
Civil Twilight 7:04 AM EST 5:40 PM EST
Nautical Twilight 6:29 AM EST 6:14 PM EST
Astronomical Twilight 5:56 AM EST 6:48 PM EST
Moon 12:47 PM EST (1/21) 3:02 AM EST (1/21)
Length of Visible Light 10h 35m
Length of Day
9h 33m
Waxing Gibbous, 75% of the Moon is Illuminated
Jan 21
Waxing Gibbous
Jan 26
Full
Feb 3
Last Quarter
Feb 10
New
Feb 17
First Quarter

Hourly Weather History & Observations

Time (EST) Temp. Windchill Dew Point Humidity Pressure Visibility Wind Dir Wind Speed Gust Speed Precip Events Conditions
12:54 AM 19.0 °F 6.1 °F 7.0 °F 59% 30.07 in 9.0 mi West 12.7 mph 19.6 mph 0.00 in Snow Light Snow
1:54 AM 19.0 °F 4.5 °F 7.0 °F 59% 30.08 in 9.0 mi West 16.1 mph - 0.00 in Snow Light Snow
2:54 AM 18.0 °F 5.4 °F 6.1 °F 60% 30.07 in 10.0 mi West 11.5 mph 19.6 mph 0.00 in   Partly Cloudy
3:54 AM 17.1 °F 7.6 °F 6.1 °F 62% 30.06 in 10.0 mi WSW 6.9 mph - N/A   Overcast
4:54 AM 18.0 °F 6.1 °F 6.1 °F 60% 30.05 in 10.0 mi WSW 10.4 mph - N/A   Overcast
5:54 AM 19.0 °F 6.8 °F 7.0 °F 59% 30.04 in 10.0 mi WSW 11.5 mph - N/A   Overcast
6:54 AM 19.0 °F 11.1 °F 7.0 °F 59% 30.04 in 10.0 mi WSW 5.8 mph - N/A   Overcast
7:54 AM 19.0 °F 10.0 °F 7.0 °F 59% 30.03 in 10.0 mi WSW 6.9 mph - 0.00 in Snow Light Snow
8:54 AM 19.0 °F 8.2 °F 8.1 °F 62% 30.02 in 10.0 mi SW 9.2 mph - 0.00 in   Overcast
9:54 AM 19.0 °F 9.0 °F 8.1 °F 62% 30.02 in 10.0 mi SW 8.1 mph - N/A   Overcast
10:54 AM 19.9 °F 11.1 °F 9.0 °F 62% 30.00 in 10.0 mi SW 6.9 mph - N/A   Overcast
11:54 AM 21.0 °F - 10.0 °F 63% 29.96 in 10.0 mi Calm Calm - N/A   Overcast
12:54 PM 21.0 °F 13.4 °F 12.0 °F 68% 29.92 in 8.0 mi WSW 5.8 mph - 0.00 in Snow Light Snow
1:54 PM 21.0 °F 11.4 °F 12.9 °F 71% 29.90 in 8.0 mi SW 8.1 mph - 0.00 in Snow Light Snow
1:59 PM 21.2 °F 10.9 °F 14.0 °F 74% 29.86 in 1.5 mi WSW 9.2 mph - 0.00 in Snow Light Snow
2:11 PM 19.4 °F 11.5 °F 15.8 °F 86% 29.86 in 7.0 mi West 5.8 mph - 0.00 in Snow Light Snow
2:54 PM 21.0 °F 10.6 °F 9.0 °F 60% 29.88 in 10.0 mi West 9.2 mph - 0.00 in   Overcast
3:54 PM 21.0 °F 11.4 °F 9.0 °F 60% 29.89 in 10.0 mi West 8.1 mph - N/A   Overcast
4:54 PM 19.9 °F 9.3 °F 7.0 °F 57% 29.89 in 10.0 mi West 9.2 mph - N/A   Mostly Cloudy
5:54 PM 19.4 °F 8.6 °F 8.6 °F 63% 29.88 in 10.0 mi WSW 9.2 mph - N/A   Mostly Cloudy
6:54 PM 19.0 °F 8.2 °F 9.0 °F 65% 29.91 in 10.0 mi WSW 9.2 mph - N/A   Mostly Cloudy
7:54 PM 18.0 °F 8.7 °F 9.0 °F 68% 29.91 in 10.0 mi WSW 6.9 mph - N/A   Scattered Clouds
8:54 PM 17.1 °F 5.8 °F 10.9 °F 77% 29.91 in 10.0 mi West 9.2 mph - N/A   Scattered Clouds
9:54 PM 17.1 °F 3.0 °F 8.1 °F 68% 29.91 in 10.0 mi WNW 13.8 mph 25.3 mph N/A   Scattered Clouds
10:38 PM 15.8 °F 1.4 °F 6.8 °F 68% 29.89 in 10.0 mi WNW 13.8 mph 18.4 mph N/A   Mostly Cloudy
10:54 PM 15.1 °F 4.2 °F 6.1 °F 68% 29.92 in 10.0 mi West 8.1 mph - N/A   Scattered Clouds
11:09 PM 15.8 °F 4.2 °F 6.8 °F 68% 29.89 in 10.0 mi West 9.2 mph - N/A   Mostly Cloudy
11:30 PM 14.0 °F 2.0 °F 5.0 °F 67% 29.89 in 10.0 mi West 9.2 mph - 0.00 in   Mostly Cloudy
11:54 PM 14.0 °F -2.0 °F 1.0 °F 56% 29.92 in 10.0 mi West 16.1 mph 21.9 mph 0.00 in   Partly Cloudy